EHI
1 0 0 0 0 0 0 0 0 0 0 0 0 1 2 4 4 4 4 2 1 0 0 1 2 2 1 1 2 3 1 0 0 1 2 4 5 5 6 4 1 1 2
2 1 0 0 0 0 0 0 0 0 0 0 0 0 2 4 5 5 4 2 0 0 0 0 1 1 0 1 3 3 2 1 0 0 1 3 3 3 4 3 1 1 2
2 1 0 0 0 0 0 0 0 0 0 0 0 0 1 3 4 4 3 1 0 0 0 0 0 0 0 1 3 3 2 1 0 0 0 1 1 2 2 1 0 1 2
1 0 0 0 0 0 0 0 0 0 0 0 0 0 1 2 3 3 1 0 0 0 0 1 1 0 1 1 2 2 1 1 1 0 0 0 0 1 1 0 0 0 1
0 0 0 0 0 0 0 0 0 0 0 0 0 0 1 2 2 2 1 0 0 0 0 1 2 2 2 2 2 1 1 2 1 0 0 0 0 1 1 0 0 0 0
0 0 0 0 0 0 0 0 0 0 0 0 0 0 0 1 1 1 0 0 1 0 0 1 2 2 2 2 1 1 1 1 1 0 0 0 0 0 0 0 0 1 1
0 0 0 0 0 0 0 0 0 0 0 0 0 0 0 0 0 0 0 0 0 0 0 0 1 1 1 0 0 0 0 0 0 0 0 0 0 0 0 0 0 0 0
0 0 0 0 0 0 0 0 0 0 0 0 0 0 0 0 0 0 0 0 0 0 0 0 0 0 0 0 0 0 0 0 0 0 0 0 0 0 0 0 0 0 0
0 0 0 0 0 0 0 0 0 0 0 0 0 0 0 0 0 0 0 0 0 0 0 0 0 0 0 0 0 0 0 0 0 0 0 0 0 0 0 0 0 0 0
0 0 0 0 0 0 0 0 0 0 0 0 0 0 0 0 0 0 0 0 0 0 0 0 0 0 0 0 0 0 0 0 0 0 0 0 0 0 0 0 0 0 0
0 0 0 1 1 0 0 0 0 0 0 0 0 0 0 0 0 0 0 0 0 0 0 0 0 0 0 0 0 0 0 0 0 0 0 0 0 0 0 0 0 0 0
0 0 1 2 2 1 0 0 0 0 0 0 0 0 0 0 0 0 0 0 0 0 0 0 0 0 0 0 0 0 0 0 0 0 0 0 0 0 0 0 0 0 0
0 0 1 2 2 1 0 0 0 0 0 0 0 0 0 0 0 0 0 0 0 0 0 0 0 0 0 0 0 0 0 0 0 0 0 0 0 0 0 0 0 0 0
0 0 1 3 2 1 0 0 0 0 0 0 0 0 0 0 0 0 0 0 0 0 0 0 0 0 0 0 0 0 0 0 0 0 0 0 0 0 0 1 1 1 1
1 1 2 3 3 2 1 1 0 0 0 0 0 0 0 0 0 0 0 0 0 0 0 0 0 0 0 0 0 0 0 0 0 0 0 0 0 0 1 2 2 2 2
2 2 2 3 3 3 2 1 1 1 0 0 0 0 0 0 0 0 0 0 0 0 0 0 0 0 0 0 0 0 0 0 0 0 0 0 0 0 1 2 2 1 1
3 3 3 3 3 3 3 3 2 1 0 0 1 1 0 0 0 0 0 0 0 0 0 0 0 0 0 0 0 0 0 0 0 0 0 0 0 0 1 1 1 0 0
3 3 3 3 3 3 3 2 2 1 0 1 2 2 1 0 0 0 1 1 0 0 0 0 0 0 0 0 0 0 0 0 0 0 0 0 0 0 0 0 0 0 0
3 3 2 2 2 2 1 1 1 1 0 1 2 2 1 0 0 0 1 2 1 1 0 0 0 0 0 0 0 0 0 0 0 0 0 0 0 0 0 0 0 0 0
2 1 1 1 0 0 0 0 0 0 0 0 1 1 0 0 0 0 1 2 2 2 1 0 0 0 0 0 0 0 0 0 0 0 0 0 0 0 0 0 0 0 0
2 1 0 0 0 0 0 0 0 0 0 0 0 0 0 0 0 0 0 1 1 2 1 0 0 0 0 0 0 0 0 0 0 0 0 0 0 0 0 0 0 0 0
2 1 0 0 0 0 0 0 0 0 0 0 0 0 0 0 0 0 0 0 0 1 1 0 0 0 0 0 0 0 0 0 0 0 0 0 0 0 0 0 0 0 0
3 1 0 0 0 0 0 0 0 0 0 0 0 0 0 0 0 0 0 0 0 0 0 0 0 0 0 0 0 0 0 0 0 0 0 0 0 0 0 0 0 0 0
4 2 0 0 0 0 0 0 0 0 0 0 0 0 0 0 0 0 0 0 0 0 0 0 0 0 0 0 0 0 0 0 0 0 0 0 0 0 0 0 0 0 0
7 4 2 1 1 0 0 0 0 0 0 0 0 0 0 0 0 0 0 0 0 0 0 0 0 0 0 0 0 0 0 0 0 0 0 0 0 0 0 0 0 0 0
10 7 3 2 2 1 0 0 0 0 0 0 0 0 0 0 0 0 0 0 0 0 0 0 0 0 0 0 0 0 0 0 0 0 0 0 0 0 0 0 0 0 0
Wind_Speed
5 7 9 9 8 8 8 9 9 9 9 8 8 8 8 8 8 8 7 7 6 6 6 6 5 5 5 6 6 6 7 7 7 7 7 7 7 7 7 6 6 5 7
6 8 10 9 8 9 8 8 8 9 9 8 8 8 8 8 8 7 8 7 7 6 6 6 6 5 6 6 6 6 6 6 6 6 6 6 7 8 7 7 7 5 7
7 8 8 9 9 9 9 9 9 9 9 8 8 8 8 8 8 8 8 8 8 7 7 6 6 6 6 6 6 6 5 4 4 4 4 3 5 8 8 8 8 8 7
8 8 9 9 9 9 9 9 9 9 9 8 9 8 8 8 9 9 8 8 8 7 6 5 5 5 6 6 6 6 5 4 4 4 3 4 5 9 9 8 8 8 8
9 9 9 9 9 9 9 9 9 9 9 9 9 9 9 8 9 9 9 9 9 8 6 5 6 6 7 7 6 5 4 4 4 4 3 5 5 8 9 8 8 8 7
9 10 8 9 9 9 9 9 9 9 9 9 9 9 9 9 9 9 9 9 9 8 8 8 8 8 7 7 6 5 4 4 3 3 4 5 5 8 9 8 8 7 7
8 9 9 9 9 8 8 8 8 8 8 9 9 10 10 10 10 10 9 9 9 9 10 10 9 9 8 7 6 5 4 4 2 3 4 5 6 9 9 9 8 8 7
7 8 8 9 9 9 8 8 8 8 8 9 9 9 9 10 10 10 10 10 9 9 9 9 9 9 8 7 6 5 4 3 4 5 5 5 8 9 8 8 8 8 8
5 6 7 7 8 9 9 8 8 8 8 8 8 7 8 9 10 10 10 9 9 9 9 8 8 8 8 7 7 6 5 6 3 3 6 4 8 8 8 8 8 8 8
4 5 6 6 7 7 7 7 8 7 6 6 6 6 6 7 8 9 9 9 8 8 8 8 8 8 7 7 6 5 4 4 4 5 3 5 9 8 7 7 7 7 7
4 4 5 6 6 5 6 7 6 6 4 4 4 4 4 3 4 5 8 8 8 7 7 6 6 6 6 5 4 4 3 2 4 5 4 8 9 8 7 7 7 7 7
4 4 4 5 6 5 4 4 2 3 3 2 2 3 2 3 3 6 7 7 6 5 4 4 3 3 2 2 2 3 2 4 4 5 5 10 9 8 8 8 7 7 7
5 4 4 5 5 5 3 3 2 2 1 2 3 4 3 3 3 3 2 3 3 3 2 2 2 1 2 3 3 3 4 5 4 4 5 9 9 9 8 8 7 7 7
5 5 4 4 5 5 4 3 2 2 1 2 1 3 3 2 2 2 2 2 2 2 2 2 2 4 4 5 5 5 6 4 4 3 4 9 8 8 8 8 8 7 7
5 5 4 4 5 5 4 2 3 2 2 2 2 2 3 2 2 2 2 2 2 2 2 2 3 5 5 6 6 6 6 6 5 5 4 8 8 8 8 8 8 8 7
5 5 4 3 4 5 3 2 3 2 2 2 2 2 3 2 2 3 3 3 3 3 2 3 4 4 4 5 6 6 5 5 5 4 4 5 9 9 9 9 9 8 7
6 6 5 3 4 4 4 4 3 2 3 3 2 2 4 3 3 4 3 3 2 2 3 3 4 4 4 4 5 5 5 5 4 4 4 3 4 8 10 10 9 9 8
6 7 5 4 4 4 4 3 2 3 3 3 2 3 4 4 5 4 2 2 3 3 3 3 3 3 3 4 4 4 4 4 4 4 4 4 3 4 6 9 9 9 9
5 6 6 5 4 5 4 3 3 4 3 2 3 3 3 4 4 3 2 2 3 3 3 3 3 3 3 3 3 3 3 3 3 4 4 4 4 3 3 6 9 9 9
4 5 6 5 4 4 3 3 3 3 2 2 3 3 3 3 4 3 2 3 3 3 3 3 3 3 2 2 3 3 3 2 2 3 3 3 3 3 3 4 3 5 9
4 4 6 5 5 4 2 2 2 2 1 2 2 2 3 2 3 3 3 3 3 2 2 3 3 2 2 2 2 2 2 2 2 2 2 2 3 3 3 3 2 2 3
5 4 6 5 5 4 2 2 2 2 1 2 1 2 2 2 2 2 3 2 3 3 3 2 2 1 0 1 1 1 1 2 2 2 1 2 2 2 3 3 3 4 4
4 4 5 6 5 5 3 2 2 2 2 1 1 1 1 2 2 3 3 2 2 2 2 2 2 2 0 1 1 1 1 1 0 1 1 2 2 2 2 3 4 4 5
4 3 4 6 5 5 4 2 2 2 1 1 1 1 1 2 2 2 2 2 2 2 2 1 2 1 1 0 1 1 1 2 2 0 1 1 2 2 2 3 4 4 4
5 4 3 5 5 4 3 3 2 2 1 1 1 2 2 1 1 1 2 2 1 2 2 2 2 1 0 0 0 0 1 1 1 2 1 0 1 1 2 3 3 3 4
5 4 4 4 5 4 3 3 3 2 2 2 2 1 1 1 1 1 1 2 1 1 2 2 1 1 0 1 0 0 1 1 0 1 1 1 1 0 1 2 2 2 3
Wind_Direction
72 77 65 63 62 61 58 56 55 58 60 59 59 58 59 58 58 60 57 56 54 54 56 59 65 79 88 90 85 83 84 87 90 95 98 96 93 87 82 78 78 78 81
88 86 72 65 67 67 61 61 60 61 60 61 60 63 65 63 62 64 62 60 56 57 57 57 62 77 89 92 91 89 86 89 97 104 105 101 99 93 85 80 79 82 83
86 90 79 68 70 68 63 63 64 64 63 63 64 66 67 67 65 68 66 62 59 56 55 58 65 72 86 95 96 92 89 87 94 93 99 109 100 89 85 83 82 79 80
82 81 77 74 71 69 67 67 66 66 65 66 69 70 69 68 67 66 66 62 59 55 54 64 77 80 88 96 92 87 80 73 80 83 80 85 89 88 83 80 80 81 79
87 86 86 80 76 72 69 68 68 69 68 69 71 72 71 71 72 69 65 64 60 54 50 71 87 87 91 96 94 86 78 64 66 68 84 81 77 87 84 77 74 77 75
95 95 95 89 85 78 74 71 71 70 71 70 71 72 74 73 73 73 70 67 63 57 60 77 86 86 90 99 99 92 78 62 58 63 81 85 84 84 81 76 73 72 72
98 104 106 100 94 88 82 80 75 72 72 73 75 78 77 73 73 74 70 68 65 62 64 73 80 83 83 86 98 95 79 66 79 77 81 87 88 86 81 76 72 69 69
103 107 116 115 107 100 92 88 83 82 79 78 81 83 83 82 80 79 75 71 66 64 67 69 74 79 79 76 87 89 75 67 75 78 84 87 92 89 82 78 73 68 68
100 115 126 130 122 111 103 100 96 93 89 87 89 89 93 94 89 85 80 75 70 69 74 77 79 80 80 75 70 71 69 66 57 69 81 79 91 89 82 76 72 70 68
106 113 126 132 133 131 124 118 114 110 105 104 106 104 103 107 102 96 87 79 74 72 73 77 79 80 84 81 71 63 53 45 65 72 77 84 83 83 82 79 75 72 69
99 108 114 117 117 123 128 127 138 138 129 124 133 134 125 116 111 102 92 89 81 78 79 83 85 88 88 83 74 49 30 63 76 76 64 78 81 80 80 79 76 76 70
98 98 109 111 113 108 102 119 137 129 134 145 125 127 123 104 97 98 103 103 97 89 80 80 81 93 82 69 63 39 35 62 72 75 68 72 75 77 77 76 75 70 67
104 91 95 105 108 107 99 99 91 97 102 91 94 101 96 98 110 108 123 119 113 96 65 59 54 52 69 66 64 61 56 60 64 65 65 69 70 72 73 73 71 67 65
103 98 83 92 99 101 99 92 94 93 96 83 69 94 93 89 91 106 111 110 100 79 52 40 48 52 56 60 60 56 61 65 72 73 67 69 69 69 70 69 66 63 63
106 99 88 81 96 91 84 98 93 79 74 85 53 84 96 89 90 91 97 91 85 83 68 44 53 53 50 52 56 57 58 62 73 78 73 70 72 72 69 69 66 62 59
112 106 97 89 87 96 96 87 80 85 83 79 66 76 93 88 88 85 84 81 78 76 65 53 59 60 59 60 54 49 50 55 66 75 80 69 70 70 66 63 61 57 56
115 106 96 91 81 88 80 67 81 71 66 66 59 56 77 76 78 84 72 82 87 85 77 66 62 59 64 66 59 49 46 47 51 60 67 70 71 67 65 61 59 56 57
109 107 109 94 84 80 79 70 71 76 66 60 59 44 60 67 71 77 80 82 90 83 83 82 75 67 64 65 59 49 50 46 45 50 59 64 63 68 62 60 56 53 51
116 122 120 104 96 84 80 78 59 66 61 54 60 50 47 52 65 73 72 80 81 77 72 84 82 82 79 75 77 61 54 52 45 45 44 56 61 69 72 65 61 55 49
120 124 117 110 102 93 77 75 64 60 54 54 57 56 50 54 71 73 71 70 74 76 71 82 85 80 89 94 80 70 65 67 55 43 39 44 50 64 65 68 66 57 55
136 129 121 120 114 107 89 86 84 74 67 70 69 64 54 53 85 92 82 74 75 79 84 92 94 88 97 111 94 70 53 63 71 54 41 45 50 47 58 63 60 63 60
146 146 135 126 116 110 98 93 108 97 74 78 70 74 73 55 60 91 94 96 95 93 82 86 105 91 97 93 101 100 75 33 20 46 61 58 49 43 46 54 60 62 60
140 150 134 127 120 118 109 79 73 76 66 68 75 59 69 80 62 66 84 89 98 106 116 115 106 96 59 350 57 88 106 109 60 7 56 82 68 53 46 45 58 62 68
147 146 129 127 128 123 122 105 112 119 119 132 130 131 102 103 101 100 113 107 114 110 112 113 102 96 101 351 342 27 94 129 134 128 342 55 79 63 60 58 52 57 67
137 132 127 118 119 118 124 127 125 108 125 113 103 106 98 84 86 95 106 116 130 125 132 119 105 102 119 111 8 34 50 44 80 122 130 41 38 37 71 77 68 57 66
131 130 125 119 119 125 143 154 151 142 142 124 120 118 125 128 104 106 113 119 130 125 132 135 142 161 149 111 4 39 117 101 79 103 134 142 126 57 72 81 85 79 77